Regional Weather Roundup
Issued by NWS Cleveland, OH

Home | Current Version | Previous Version | Text Only | Print | Product List | Glossary On
Versions: 1 2 3 4 5 6 7 8 9 10 11 12 13 14 15 16 17 18 19 20 21 22 23 24 25 26 27 28 29 30 31 32 33 34 35 36 37 38 39 40 41 42 43 44 45 46 47 48 49 50
000
ASUS41 KCLE 060510
RWRCLE
OHIO REGIONAL WEATHER ROUNDUP
NATIONAL WEATHER SERVICE CLEVELAND, OH
1200 AM EST FRI MAR 06 2015

NOTE: "FAIR" INDICATES FEW OR NO CLOUDS BELOW 12,000 FEET WITH NO
SIGNIFICANT WEATHER AND/OR OBSTRUCTIONS TO VISIBILITY.

OHZ001>008-015>018-024>027-034-035-043-044-060600-
   NORTHWEST OHIO

CITY           SKY/WX    TMP DP  RH WIND       PRES   REMARKS
DEFIANCE       PTCLDY     6  -1  73 CALM      30.53F
FINDLAY        PTCLDY     5  -1  76 SW6       30.51S WCI  -6
TOLEDO EXPRESS MOCLDY     4  -2  76 SW5       30.51F WCI  -5
TOLEDO EXEC    PTCLDY     8  -1  66 SW5       30.53S WCI   0
LIMA           CLOUDY    11   4  73 S5        30.51S WCI   3
$$

OHZ009>014-019>023-028>033-038-089-060600-
   NORTHEAST OHIO

CITY           SKY/WX    TMP DP  RH WIND       PRES   REMARKS
CLE-HOPKINS    CLEAR      5  -2  72 SW3       30.54S
CLE-LAKEFRONT  CLEAR     11   2  67 S5        30.52S WCI   3
CUY CO. ARPT   NOT AVBL
LORAIN-ELYRIA  PTCLDY     5   0  79 SW3       30.51S
ASHTABULA      PTCLDY    -6 -12  75 CALM      30.50S
AKRON-CANTON   PTCLDY     6  -3  66 SW3       30.47F
WOOSTER        PTCLDY    -1  -7  75 CALM      30.49S
MANSFIELD      PTCLDY     6   4  91 SW3       30.47S
YOUNGSTOWN     MOCLDY    -1  -5  82 CALM      30.47S
$$

OHZ042-051>053-060>062-070>072-077>081-060600-
  SOUTHWEST OHIO

CITY           SKY/WX    TMP DP  RH WIND       PRES   REMARKS
CINC-COVINGTON FAIR      11   3  70 CALM      30.53F
CINC-LUNKEN    PTCLDY     8   6  92 NE3       30.58F
HAMILTON       PTCLDY     6   1  80 CALM      30.57S
DAYTON         PTCLDY    13   4  67 CALM      30.52F
WRIGHT-PAT AFB PTCLDY    10   5  80 CALM      30.53S
DAYTON GENERAL PTCLDY    11   3  70 CALM      30.51F
WILMINGTON     PTCLDY     2  -3  80 S3        30.52R
$$

OHZ036-037-039>041-045>050-054>059-063>069-073>076-082>088-060600-
  CENTRAL AND SOUTHEAST OHIO

CITY           SKY/WX    TMP DP  RH WIND       PRES   REMARKS
COLUMBUS       PTCLDY     9   4  80 CALM      30.53S
OSU AIRPORT    PTCLDY     9   3  77 CALM      30.52S
BOLTON FIELD   PTCLDY   N/A N/A N/A CALM      30.53S
RICKENBACK AFB PTCLDY     9   2  74 CALM      30.53F
NEWARK         PTCLDY     2  -2  83 CALM      30.52S
MARION         PTCLDY     3  -3  76 CALM      30.51S
LANCASTER      PTCLDY    -2  -6  83 CALM      30.52F
ZANESVILLE     PTCLDY     2  -1  88 CALM      30.52S
NEW PHILLY     PTCLDY     7   0  73 CALM      30.52F
$$


USA.gov is the U.S. government's official web portal to all federal, state and local government web resources and services.